Regional Weather Roundup
Issued by NWS

Home | Current Version | Previous Version | Graphics & Text | Print | Product List | Glossary On
Versions: 1 2 3 4 5 6 7 8 9 10 11 12 13 14 15 16 17 18 19 20 21 22 23 24 25 26 27 28 29 30 31 32 33 34 35 36 37 38 39 40 41 42 43 44 45 46 47 48 49 50
241
ASUS45 KCYS 240110
RWRWY

WYOMING REGIONAL WEATHER ROUNDUP
NATIONAL WEATHER SERVICE CHEYENNE WY
600 PM MST MON JAN 23 2017

NOTE:  "FAIR" INDICATES FEW OR NO CLOUDS BELOW 12,000 FEET
WITH NO SIGNIFICANT WEATHER AND/OR OBSTRUCTIONS TO VISIBILITY.

WYZ001-240200-
YELLOWSTONE NATIONAL PARK

CITY           SKY/WX    TMP DP  RH WIND       PRES   REMARKS
LK YELLOWSTONE   N/A     21  15  78 VRB3      29.46S
W YELLOWSTONE  NOT AVBL

$$
WYZ002>013-054>058-071-098>099-240200-
NORTHERN WYOMING

CITY           SKY/WX    TMP DP  RH WIND       PRES   REMARKS
JACKSON        LGT SNOW  21  19  93 SW6       29.43R WCI  14
CODY           CLOUDY    22  18  85 N12       29.62R WCI  10
GREYBULL       FAIR      23  18  81 NW17      29.60R WCI   9
WORLAND        LGT SNOW  27  26  96 CALM      29.61R FOG
SHERIDAN       MOCLDY    18  16  92 W13       29.70R WCI   5
BUFFALO        FAIR      22  16  78 N12       29.63R WCI  10
GILLETTE       CLOUDY    22  19  89 N10       29.63R WCI  11
HULETT         SNOW      21  19  93 NE10      29.66R VSB<1/4 WCI  10
NEWCASTLE      FAIR      28  23  80 N10       29.59S WCI  19

$$
WYZ014>020-022>026-101>103-240200-
CENTRAL WYOMING

CITY           SKY/WX    TMP DP  RH WIND       PRES   REMARKS
BIG PINEY      CLOUDY    20  18  92 CALM      29.43F
PINEDALE       CLOUDY    23  21  93 E5        29.43S WCI  17
DUBOIS         NOT AVBL
LANDER         CLOUDY    26  21  81 NW9       29.51S WCI  17
RIVERTON       LGT SNOW  24  22  91 NW8       29.52S FOG     WCI  15
CASPER         CLOUDY    30  25  81 NE15      29.53S WCI  19
DOUGLAS        CLOUDY    33  24  69 E10       29.57R WCI  25

$$
WYZ021-027>030-104>119-240200-
SOUTHERN WYOMING

CITY           SKY/WX    TMP DP  RH WIND       PRES   REMARKS
EVANSTON       LGT SNOW  24  21  88 SW18      29.45R FOG     WCI  10
ROCK SPRINGS   CLOUDY    30  22  72 S7        29.42R WCI  23
RAWLINS        LGT SNOW  32  27  81 E6        29.45F WCI  26
LARAMIE        MOCLDY    26  22  84 E8        29.48F WCI  18
CHEYENNE       LGT SNOW  34  29  82 NE10      29.54R WCI  26
TORRINGTON     CLOUDY    39  30  70 S5        29.57R

$$




USA.gov is the U.S. government's official web portal to all federal, state and local government web resources and services.